Weather in Miami Beach

United States     25°49′04″N   80°07′56″W
temp.,
°C
wind,
m/s
gust,
m/s
humid.,
%
clouds,
%
prec.,
mm/h
press.,
hPa
HPBL,
m
16 may, sun
sun1623:00+26ne8960100 0.0 10191206
02:00+25ne6762100 0.0 10181114
05:00+25ne6660100 0.0 10181192
08:00+25ne6657100 0.0 10201312
11:00+27ne6654100 0.0 10211533
14:00+27ene8759100 0.1 10201411
17:00+26ne886431 0.3 10191216
20:00+25ene91066100 0.7 10191264
17 may, mon
mon1723:00+25ene896672 0.2 10201138
02:00+24ene886961 0.3 1019966
05:00+24ene676695 0.1 1018829
08:00+25ene776185 0.1 10191131
11:00+26ene765256 0.0 10201562
14:00+27ene7650100 0.0 10191635
17:00+26ene7649100 0.0 10181626
20:00+26ene7753100 0.0 10191592
18 may, tue
tue1823:00+25ene7859100 0.0 10201449
02:00+25e7860100 0.1 10181377
05:00+25e7869100 0.1 10171120
08:00+25e7966100 0.4 10191200
11:00+27e8861100 0.4 10201366
14:00+27e9859100 0.6 10191442
17:00+27ene885689 0.1 10181507
20:00+26ene785795 0.1 10181526
19 may, wed
wed1923:00+26ene896097 0.0 10191352
02:00+26e81063100 0.0 10181378
05:00+25e8961100 0.0 10161318
08:00+26e7866100 0.1 10181191
11:00+27e886383 0.2 10191305
14:00+28e9106219 1.3 10191330
17:00+27e10116075 0.8 10171418
20:00+26e10116269 0.8 10181427
20 may, thu
thu2023:00+26e1012645 0.0 10191397
02:00+26e10126898 0.1 10181256
05:00+25e10126932 0.2 10181231
08:00+25ene101264100 0.6 10191437
11:00+26ene101161100 0.1 10201380
14:00+27ene101057100 0.1 10191573
17:00+27ene10116094 0.1 10181439
20:00+26ene10136593 0.4 10191380